Location: Black Creek
(40.9000°S, 175.5500°E)
Time: 23:05:16
(UTC+00:00)

Meteor 1-24 Rocket - Pass Details

Date: 08 November 2024
Orbit: 789 x 926 km, 81.3° (Epoch: 03 December)

Event Time Altitude Azimuth Distance (km) Brightness Sun altitude
Rises 16:22:54 0° 197° (SSW) 3,606 7.1 -6.4°
Reaches altitude 10° 16:25:33 10° 204° (SSW) 2,649 6.4 -6.0°
Maximum altitude 16:31:08 40° 271° (W) 1,321 4.3 -5.1°
Drops below altitude 10° 16:36:33 10° 339° (NNW) 2,557 5.8 -4.2°
Sets 16:39:05 0° 346° (NNW) 3,468 6.5 -3.7°
